| time (UTC) | temp F | wind direction | speed MPH | gust MPH | rain 1hr in | rain 24hr in | rain mn in | humidity % | barometer mb |
| 20260506191047 | 72 | 326 | 0.0 | 0.0 | 0.00 | 0.00 | 0.00 | 65 | 1024.4 |
| 20260506190544 | 73 | 327 | 0.0 | 0.0 | 0.00 | 0.00 | 0.00 | 61 | 1024.4 |
| 20260506190042 | 73 | 5 | 0.0 | 0.0 | 0.00 | 0.00 | 0.00 | 61 | 1024.1 |
| 20260506185539 | 72 | 327 | 0.0 | 0.0 | 0.00 | 0.00 | 0.00 | 65 | 1024.3 |
| 20260506185035 | 72 | 309 | 0.0 | 0.0 | 0.00 | 0.00 | 0.00 | 61 | 1024.3 |
| 20260506184533 | 71 | 332 | 0.0 | 0.0 | 0.00 | 0.00 | 0.00 | 64 | 1024.5 |
| 20260506184030 | 71 | 321 | 0.0 | 0.0 | 0.00 | 0.00 | 0.00 | 64 | 1024.5 |
| 20260506183526 | 70 | 318 | 0.0 | 0.0 | 0.00 | 0.00 | 0.00 | 63 | 1024.5 |
| 20260506183023 | 71 | 319 | 0.0 | 0.0 | 0.00 | 0.00 | 0.00 | 62 | 1024.5 |
| 20260506182520 | 72 | 319 | 0.0 | 0.0 | 0.00 | 0.00 | 0.00 | 63 | 1024.5 |
| 20260506182017 | 71 | 327 | 0.0 | 0.0 | 0.00 | 0.00 | 0.00 | 64 | 1024.6 |
| 20260506181515 | 71 | 21 | 0.0 | 0.0 | 0.00 | 0.00 | 0.00 | 64 | 1024.5 |
| 20260506181012 | 70 | 336 | 0.0 | 0.0 | 0.00 | 0.00 | 0.00 | 64 | 1024.7 |
| 20260506180508 | 70 | 354 | 0.0 | 0.0 | 0.00 | 0.00 | 0.00 | 63 | 1024.3 |
| 20260506180006 | 71 | 323 | 0.0 | 0.0 | 0.00 | 0.00 | 0.00 | 64 | 1024.5 |
| 20260506175501 | 71 | 309 | 0.0 | 0.0 | 0.00 | 0.00 | 0.00 | 62 | 1024.6 |
| 20260506174958 | 71 | 322 | 0.0 | 0.0 | 0.00 | 0.00 | 0.00 | 62 | 1024.6 |
| 20260506174456 | 70 | 307 | 0.0 | 0.0 | 0.00 | 0.00 | 0.00 | 63 | 1024.5 |
| 20260506173952 | 70 | 320 | 0.0 | 0.0 | 0.00 | 0.00 | 0.00 | 65 | 1024.6 |
| 20260506173450 | 69 | 320 | 0.0 | 0.0 | 0.00 | 0.00 | 0.00 | 65 | 1024.5 |
| 20260506172946 | 68 | 315 | 0.0 | 0.0 | 0.00 | 0.00 | 0.00 | 65 | 1024.5 |
| 20260506172444 | 68 | 323 | 0.0 | 0.0 | 0.00 | 0.00 | 0.00 | 68 | 1024.6 |
| 20260506171940 | 68 | 339 | 0.0 | 0.0 | 0.00 | 0.00 | 0.00 | 69 | 1024.5 |
| 20260506171438 | 68 | 328 | 0.0 | 0.0 | 0.00 | 0.00 | 0.00 | 68 | 1024.6 |
| 20260506170935 | 68 | 303 | 0.0 | 0.0 | 0.00 | 0.00 | 0.00 | 67 | 1024.7 |
| 20260506170431 | 68 | 322 | 0.0 | 0.0 | 0.00 | 0.00 | 0.00 | 64 | 1024.8 |
| 20260506165924 | 68 | 328 | 0.0 | 0.0 | 0.00 | 0.00 | 0.00 | 67 | 1024.5 |
| 20260506165423 | 67 | 359 | 0.0 | 0.0 | 0.00 | 0.00 | 0.00 | 67 | 1024.7 |
| 20260506164918 | 66 | 328 | 0.0 | 0.0 | 0.00 | 0.00 | 0.00 | 68 | 1024.7 |
| 20260506164415 | 65 | 331 | 0.0 | 0.0 | 0.00 | 0.00 | 0.00 | 71 | 1024.7 |
| 20260506163913 | 65 | 324 | 0.0 | 0.0 | 0.00 | 0.00 | 0.00 | 69 | 1024.7 |
| 20260506163407 | 66 | 332 | 0.0 | 0.0 | 0.00 | 0.00 | 0.00 | 68 | 1024.9 |
| 20260506162902 | 64 | 321 | 0.0 | 0.0 | 0.00 | 0.00 | 0.00 | 70 | 1024.8 |
| 20260506162400 | 64 | 323 | 0.0 | 0.0 | 0.00 | 0.00 | 0.00 | 70 | 1024.7 |
| 20260506161852 | 64 | 302 | 0.0 | 0.0 | 0.00 | 0.00 | 0.00 | 71 | 1024.9 |
| 20260506161349 | 64 | 329 | 0.0 | 0.0 | 0.00 | 0.00 | 0.00 | 71 | 1024.7 |
| 20260506160842 | 63 | 335 | 0.0 | 0.0 | 0.00 | 0.00 | 0.00 | 72 | 1024.9 |
| 20260506160339 | 63 | 322 | 0.0 | 0.0 | 0.00 | 0.00 | 0.00 | 73 | 1024.8 |
| 20260506155837 | 62 | 324 | 0.0 | 0.0 | 0.00 | 0.00 | 0.00 | 74 | 1024.9 |
| 20260506155333 | 60 | 348 | 0.0 | 0.0 | 0.00 | 0.00 | 0.00 | 77 | 1024.8 |
| 20260506153450 | 59 | 326 | 0.0 | 0.0 | 0.00 | 0.00 | 0.00 | 83 | 1024.8 |
| 20260506152948 | 59 | 323 | 0.0 | 0.0 | 0.00 | 0.00 | 0.00 | 83 | 1024.7 |
| 20260506152445 | 58 | 323 | 0.0 | 0.0 | 0.00 | 0.00 | 0.00 | 82 | 1024.8 |
| 20260506151943 | 58 | 328 | 0.0 | 0.0 | 0.00 | 0.00 | 0.00 | 83 | 1024.8 |
| 20260506151440 | 58 | 334 | 0.0 | 0.0 | 0.00 | 0.00 | 0.00 | 84 | 1024.7 |
| 20260506150938 | 58 | 322 | 0.0 | 0.0 | 0.00 | 0.00 | 0.00 | 84 | 1024.7 |
| 20260506150433 | 57 | 325 | 0.0 | 0.0 | 0.00 | 0.00 | 0.00 | 84 | 1024.9 |
| 20260506145931 | 57 | 303 | 0.0 | 0.0 | 0.00 | 0.00 | 0.00 | 85 | 1024.8 |
| 20260506145427 | 57 | 323 | 0.0 | 0.0 | 0.00 | 0.00 | 0.00 | 85 | 1024.5 |
| 20260506144925 | 57 | 319 | 0.0 | 0.0 | 0.00 | 0.00 | 0.00 | 85 | 1024.7 |
| 20260506144421 | 56 | 320 | 0.0 | 0.0 | 0.00 | 0.00 | 0.00 | 86 | 1024.8 |
| 20260506143920 | 56 | 316 | 0.0 | 0.0 | 0.00 | 0.00 | 0.00 | 86 | 1024.7 |
| 20260506143416 | 56 | 318 | 0.0 | 0.0 | 0.00 | 0.00 | 0.00 | 86 | 1024.6 |
| 20260506142914 | 56 | 324 | 0.0 | 0.0 | 0.00 | 0.00 | 0.00 | 86 | 1024.6 |
| 20260506142412 | 56 | 323 | 0.0 | 0.0 | 0.00 | 0.00 | 0.00 | 86 | 1024.5 |
| 20260506141910 | 56 | 298 | 0.0 | 0.0 | 0.00 | 0.00 | 0.00 | 86 | 1024.4 |
| 20260506141408 | 56 | 316 | 0.0 | 0.0 | 0.00 | 0.00 | 0.00 | 87 | 1024.6 |
| 20260506140906 | 56 | 325 | 0.0 | 0.0 | 0.00 | 0.00 | 0.00 | 87 | 1024.5 |
| 20260506140402 | 56 | 326 | 0.0 | 0.0 | 0.00 | 0.00 | 0.00 | 88 | 1024.4 |
| 20260506135900 | 55 | 331 | 0.0 | 0.0 | 0.00 | 0.00 | 0.00 | 88 | 1024.3 |
| 20260506135356 | 55 | 325 | 0.0 | 0.0 | 0.00 | 0.00 | 0.00 | 89 | 1024.3 |
| 20260506134852 | 55 | 325 | 0.0 | 0.0 | 0.00 | 0.00 | 0.00 | 88 | 1024.3 |
| 20260506134349 | 55 | 300 | 0.0 | 0.0 | 0.00 | 0.00 | 0.00 | 89 | 1024.1 |
| 20260506133846 | 55 | 324 | 0.0 | 0.0 | 0.00 | 0.00 | 0.00 | 89 | 1024.4 |
| 20260506133342 | 55 | 321 | 0.0 | 0.0 | 0.00 | 0.00 | 0.00 | 89 | 1024.2 |
| 20260506132839 | 55 | 325 | 0.0 | 0.0 | 0.00 | 0.00 | 0.00 | 89 | 1024.2 |
| 20260506132336 | 55 | 323 | 0.0 | 0.0 | 0.00 | 0.00 | 0.00 | 89 | 1024.1 |
| 20260506131835 | 55 | 325 | 0.0 | 0.0 | 0.00 | 0.00 | 0.00 | 89 | 1024.4 |
| 20260506131330 | 55 | 324 | 0.0 | 0.0 | 0.00 | 0.00 | 0.00 | 89 | 1024.3 |
| 20260506130828 | 55 | 322 | 0.0 | 0.0 | 0.00 | 0.00 | 0.00 | 89 | 1024.1 |
| 20260506130324 | 55 | 318 | 0.0 | 0.0 | 0.00 | 0.00 | 0.00 | 89 | 1024.1 |
| 20260506125822 | 55 | 326 | 0.0 | 0.0 | 0.00 | 0.00 | 0.00 | 89 | 1024.1 |
| 20260506125320 | 55 | 321 | 0.0 | 0.0 | 0.00 | 0.00 | 0.00 | 89 | 1023.8 |
| 20260506124819 | 55 | 324 | 0.0 | 0.0 | 0.00 | 0.00 | 0.00 | 89 | 1024.0 |
| 20260506124315 | 55 | 324 | 0.0 | 0.0 | 0.00 | 0.00 | 0.00 | 89 | 1024.0 |
| 20260506123813 | 55 | 325 | 0.0 | 0.0 | 0.00 | 0.00 | 0.00 | 89 | 1023.8 |
| 20260506123311 | 55 | 321 | 0.0 | 0.0 | 0.00 | 0.00 | 0.00 | 88 | 1023.9 |
| 20260506122808 | 55 | 324 | 0.0 | 0.0 | 0.00 | 0.00 | 0.00 | 88 | 1024.0 |
| 20260506122306 | 55 | 320 | 0.0 | 0.0 | 0.00 | 0.00 | 0.00 | 88 | 1023.9 |
| 20260506121803 | 55 | 322 | 0.0 | 0.0 | 0.00 | 0.00 | 0.00 | 88 | 1023.8 |
| 20260506121259 | 55 | 321 | 0.0 | 0.0 | 0.00 | 0.00 | 0.00 | 88 | 1023.7 |
| 20260506120757 | 55 | 324 | 0.0 | 0.0 | 0.00 | 0.00 | 0.00 | 88 | 1023.8 |
| 20260506120254 | 55 | 319 | 0.0 | 0.0 | 0.00 | 0.00 | 0.00 | 88 | 1023.8 |
| 20260506115752 | 55 | 325 | 0.0 | 0.0 | 0.00 | 0.00 | 0.00 | 88 | 1023.8 |
| 20260506115250 | 55 | 320 | 0.0 | 0.0 | 0.00 | 0.00 | 0.00 | 88 | 1023.8 |
| 20260506114747 | 55 | 322 | 0.0 | 0.0 | 0.00 | 0.00 | 0.00 | 88 | 1023.7 |
| 20260506114245 | 55 | 323 | 0.0 | 0.0 | 0.00 | 0.00 | 0.00 | 88 | 1023.7 |
| 20260506113743 | 55 | 322 | 0.0 | 0.0 | 0.00 | 0.00 | 0.00 | 88 | 1023.6 |
| 20260506113240 | 55 | 324 | 0.0 | 0.0 | 0.00 | 0.00 | 0.00 | 88 | 1023.5 |
| 20260506112736 | 55 | 324 | 0.0 | 0.0 | 0.00 | 0.00 | 0.00 | 88 | 1023.5 |
| 20260506112234 | 55 | 323 | 0.0 | 0.0 | 0.00 | 0.00 | 0.00 | 88 | 1023.5 |
| 20260506111731 | 55 | 322 | 0.0 | 0.0 | 0.00 | 0.00 | 0.00 | 88 | 1023.4 |
| 20260506111230 | 55 | 318 | 0.0 | 0.0 | 0.00 | 0.00 | 0.00 | 88 | 1023.4 |
| 20260506110726 | 55 | 324 | 0.0 | 0.0 | 0.00 | 0.00 | 0.00 | 88 | 1023.5 |
| 20260506110224 | 55 | 322 | 0.0 | 0.0 | 0.00 | 0.00 | 0.00 | 88 | 1023.4 |
| 20260506105720 | 55 | 322 | 0.0 | 0.0 | 0.00 | 0.00 | 0.00 | 88 | 1023.4 |
| 20260506105217 | 55 | 328 | 0.0 | 0.0 | 0.00 | 0.00 | 0.00 | 88 | 1023.3 |
| 20260506104715 | 55 | 322 | 0.0 | 0.0 | 0.00 | 0.00 | 0.00 | 88 | 1023.3 |
| 20260506104213 | 55 | 322 | 0.0 | 0.0 | 0.00 | 0.00 | 0.00 | 88 | 1023.3 |
| 20260506103709 | 55 | 322 | 0.0 | 0.0 | 0.00 | 0.00 | 0.00 | 88 | 1023.2 |
| 20260506103206 | 55 | 322 | 0.0 | 0.0 | 0.00 | 0.00 | 0.00 | 88 | 1023.4 |
| 20260506102705 | 55 | 322 | 0.0 | 0.0 | 0.00 | 0.00 | 0.00 | 88 | 1023.2 |
| 20260506102202 | 54 | 324 | 0.0 | 0.0 | 0.00 | 0.00 | 0.00 | 88 | 1023.1 |
| 20260506101659 | 55 | 325 | 0.0 | 0.0 | 0.00 | 0.00 | 0.00 | 88 | 1023.1 |
| 20260506101155 | 54 | 322 | 0.0 | 0.0 | 0.00 | 0.00 | 0.00 | 88 | 1023.2 |
| 20260506100654 | 54 | 322 | 0.0 | 0.0 | 0.00 | 0.00 | 0.00 | 88 | 1023.2 |
| 20260506100151 | 55 | 322 | 0.0 | 0.0 | 0.00 | 0.00 | 0.00 | 88 | 1023.1 |
| 20260506095649 | 54 | 322 | 0.0 | 0.0 | 0.00 | 0.00 | 0.00 | 88 | 1023.0 |
| 20260506095146 | 54 | 323 | 0.0 | 0.0 | 0.00 | 0.00 | 0.00 | 88 | 1023.4 |
| 20260506094643 | 54 | 322 | 0.0 | 0.0 | 0.00 | 0.00 | 0.00 | 88 | 1023.2 |
| 20260506094141 | 54 | 324 | 0.0 | 0.0 | 0.00 | 0.00 | 0.00 | 89 | 1023.3 |
| 20260506093640 | 54 | 319 | 0.0 | 0.0 | 0.00 | 0.00 | 0.00 | 89 | 1023.1 |
| 20260506093136 | 54 | 323 | 0.0 | 0.0 | 0.00 | 0.00 | 0.00 | 89 | 1023.3 |
| 20260506092634 | 54 | 323 | 0.0 | 0.0 | 0.00 | 0.00 | 0.00 | 89 | 1023.2 |
| 20260506092131 | 54 | 324 | 0.0 | 0.0 | 0.00 | 0.00 | 0.00 | 90 | 1023.4 |
| 20260506091629 | 54 | 324 | 0.0 | 0.0 | 0.00 | 0.00 | 0.00 | 90 | 1023.3 |
| 20260506091126 | 54 | 324 | 0.0 | 0.0 | 0.00 | 0.00 | 0.00 | 89 | 1023.1 |
| 20260506090625 | 54 | 322 | 0.0 | 0.0 | 0.00 | 0.00 | 0.00 | 89 | 1023.1 |
| 20260506090120 | 54 | 321 | 0.0 | 0.0 | 0.00 | 0.00 | 0.00 | 89 | 1023.2 |
| 20260506085617 | 54 | 318 | 0.0 | 0.0 | 0.00 | 0.00 | 0.00 | 89 | 1023.1 |
| 20260506085114 | 53 | 323 | 0.0 | 0.0 | 0.00 | 0.00 | 0.00 | 90 | 1023.2 |
| 20260506084610 | 53 | 323 | 0.0 | 0.0 | 0.00 | 0.00 | 0.00 | 90 | 1023.2 |
| 20260506084107 | 53 | 324 | 0.0 | 0.0 | 0.00 | 0.00 | 0.00 | 90 | 1023.2 |
| 20260506083604 | 53 | 324 | 0.0 | 0.0 | 0.00 | 0.00 | 0.00 | 90 | 1023.3 |
| 20260506083101 | 53 | 324 | 0.0 | 0.0 | 0.00 | 0.00 | 0.00 | 90 | 1023.2 |
| 20260506082558 | 53 | 320 | 0.0 | 0.0 | 0.00 | 0.00 | 0.00 | 90 | 1023.3 |
| 20260506082054 | 53 | 323 | 0.0 | 0.0 | 0.00 | 0.00 | 0.00 | 90 | 1023.2 |
| 20260506081552 | 53 | 323 | 0.0 | 0.0 | 0.00 | 0.00 | 0.00 | 90 | 1023.3 |
| 20260506081049 | 53 | 323 | 0.0 | 0.0 | 0.00 | 0.00 | 0.00 | 90 | 1023.2 |
| 20260506080547 | 53 | 322 | 0.0 | 0.0 | 0.00 | 0.00 | 0.00 | 90 | 1023.2 |
| 20260506073027 | 52 | 324 | 0.0 | 0.0 | 0.00 | 0.00 | 0.00 | 92 | 1022.9 |
| 20260506072524 | 52 | 322 | 0.0 | 0.0 | 0.00 | 0.00 | 0.00 | 92 | 1022.8 |
| 20260506072022 | 52 | 320 | 0.0 | 0.0 | 0.00 | 0.00 | 0.00 | 91 | 1023.0 |
| 20260506071520 | 52 | 321 | 0.0 | 0.0 | 0.00 | 0.00 | 0.00 | 91 | 1022.9 |
| 20260506071017 | 52 | 316 | 0.0 | 0.0 | 0.00 | 0.00 | 0.00 | 91 | 1022.8 |
| 20260506070514 | 52 | 316 | 0.0 | 0.0 | 0.00 | 0.00 | 0.00 | 91 | 1022.9 |
| 20260506062451 | 52 | 322 | 0.0 | 0.0 | 0.00 | 0.08 | 0.08 | 92 | 1022.7 |
| 20260506061947 | 51 | 322 | 0.0 | 0.0 | 0.00 | 0.08 | 0.08 | 92 | 1022.8 |
| 20260506061444 | 52 | 322 | 0.0 | 0.0 | 0.00 | 0.08 | 0.08 | 92 | 1022.5 |
| 20260506060942 | 51 | 323 | 0.0 | 0.0 | 0.00 | 0.08 | 0.08 | 92 | 1022.6 |
| 20260506060440 | 51 | 322 | 0.0 | 0.0 | 0.00 | 0.08 | 0.08 | 92 | 1022.6 |
| 20260506051412 | 53 | 326 | 0.0 | 0.0 | 0.00 | 0.08 | 0.08 | 90 | 1022.4 |
| 20260506050909 | 53 | 322 | 0.0 | 0.0 | 0.00 | 0.08 | 0.08 | 89 | 1022.1 |
| 20260506050406 | 53 | 335 | 0.0 | 0.0 | 0.00 | 0.08 | 0.08 | 89 | 1022.1 |
| 20260506044857 | 54 | 325 | 0.0 | 0.0 | 0.00 | 0.08 | 0.08 | 87 | 1022.0 |
| 20260506044355 | 54 | 324 | 0.0 | 0.0 | 0.00 | 0.08 | 0.08 | 87 | 1021.9 |
| 20260506043851 | 55 | 324 | 0.0 | 0.0 | 0.00 | 0.08 | 0.08 | 87 | 1022.0 |
| 20260506043348 | 55 | 322 | 0.0 | 0.0 | 0.00 | 0.08 | 0.08 | 87 | 1021.8 |
| 20260506042847 | 55 | 324 | 0.0 | 0.0 | 0.00 | 0.08 | 0.08 | 87 | 1021.6 |
| 20260506042346 | 55 | 326 | 0.0 | 0.0 | 0.00 | 0.08 | 0.08 | 87 | 1021.9 |
| 20260506041844 | 55 | 327 | 0.0 | 0.0 | 0.00 | 0.08 | 0.08 | 87 | 1021.8 |
| 20260506041341 | 55 | 326 | 0.0 | 0.0 | 0.00 | 0.08 | 0.08 | 87 | 1021.5 |
| 20260506040837 | 55 | 327 | 0.0 | 0.0 | 0.00 | 0.08 | 0.08 | 87 | 1021.4 |
| 20260506040335 | 55 | 321 | 0.0 | 0.0 | 0.00 | 0.08 | 0.08 | 86 | 1021.3 |
| 20260506035831 | 55 | 322 | 0.0 | 0.0 | 0.00 | 0.08 | 0.08 | 85 | 1021.3 |
| 20260506035329 | 56 | 324 | 0.0 | 0.0 | 0.00 | 0.08 | 0.08 | 85 | 1021.1 |
| 20260506034826 | 56 | 324 | 0.0 | 0.0 | 0.00 | 0.08 | 0.08 | 84 | 1021.1 |
| 20260506034323 | 56 | 326 | 0.0 | 0.0 | 0.00 | 0.08 | 0.08 | 84 | 1020.8 |
| 20260506033820 | 57 | 326 | 0.0 | 0.0 | 0.00 | 0.08 | 0.08 | 83 | 1020.8 |
| 20260506033317 | 57 | 322 | 0.0 | 0.0 | 0.00 | 0.08 | 0.08 | 82 | 1020.8 |
| 20260506032814 | 57 | 321 | 0.0 | 0.0 | 0.00 | 0.08 | 0.08 | 82 | 1020.8 |
| 20260506032311 | 57 | 319 | 0.0 | 0.0 | 0.00 | 0.08 | 0.08 | 81 | 1020.7 |
| 20260506031807 | 58 | 321 | 0.0 | 0.0 | 0.00 | 0.08 | 0.08 | 81 | 1020.7 |
| 20260506031305 | 58 | 319 | 0.0 | 0.0 | 0.00 | 0.08 | 0.08 | 80 | 1020.6 |
| 20260506030802 | 58 | 325 | 0.0 | 0.0 | 0.00 | 0.08 | 0.08 | 80 | 1020.7 |
| 20260506030300 | 58 | 325 | 0.0 | 0.0 | 0.00 | 0.08 | 0.08 | 80 | 1020.5 |
| 20260506025757 | 58 | 245 | 0.0 | 0.0 | 0.00 | 0.08 | 0.08 | 79 | 1020.3 |
| 20260506025253 | 58 | 320 | 0.0 | 0.0 | 0.00 | 0.08 | 0.08 | 79 | 1020.4 |
| 20260506024750 | 59 | 316 | 0.0 | 0.0 | 0.00 | 0.08 | 0.08 | 79 | 1020.1 |
| 20260506024247 | 59 | 315 | 0.0 | 0.0 | 0.00 | 0.08 | 0.08 | 78 | 1020.1 |
| 20260506023743 | 59 | 308 | 0.0 | 0.0 | 0.00 | 0.08 | 0.08 | 78 | 1020.1 |
| 20260506023240 | 59 | 330 | 0.0 | 0.0 | 0.00 | 0.08 | 0.08 | 78 | 1020.2 |
| 20260506022736 | 59 | 344 | 0.0 | 0.0 | 0.00 | 0.08 | 0.08 | 78 | 1020.3 |
| 20260506022235 | 59 | 321 | 0.0 | 0.0 | 0.00 | 0.08 | 0.08 | 78 | 1020.1 |
| 20260506021732 | 60 | 325 | 0.0 | 0.0 | 0.00 | 0.08 | 0.08 | 77 | 1020.3 |
| 20260506021224 | 60 | 304 | 0.0 | 0.0 | 0.00 | 0.08 | 0.08 | 78 | 1019.9 |
| 20260506020720 | 60 | 317 | 0.0 | 0.0 | 0.00 | 0.08 | 0.08 | 78 | 1020.0 |
| 20260506020218 | 60 | 330 | 0.0 | 0.0 | 0.00 | 0.08 | 0.08 | 77 | 1019.8 |
| 20260506015716 | 60 | 324 | 0.0 | 0.0 | 0.00 | 0.08 | 0.08 | 77 | 1019.8 |
| 20260506015213 | 60 | 298 | 0.0 | 0.0 | 0.00 | 0.08 | 0.08 | 76 | 1019.8 |
| 20260506014710 | 61 | 352 | 0.0 | 0.0 | 0.00 | 0.08 | 0.08 | 77 | 1019.8 |
| 20260506014206 | 61 | 317 | 0.0 | 0.0 | 0.00 | 0.08 | 0.08 | 76 | 1019.8 |
| 20260506013704 | 61 | 326 | 0.0 | 0.0 | 0.00 | 0.08 | 0.08 | 77 | 1019.8 |
| 20260506013201 | 61 | 322 | 0.0 | 0.0 | 0.00 | 0.08 | 0.08 | 76 | 1019.7 |
| 20260506012657 | 61 | 309 | 0.0 | 0.0 | 0.00 | 0.08 | 0.08 | 77 | 1019.7 |
| 20260506012154 | 61 | 308 | 0.0 | 0.0 | 0.00 | 0.08 | 0.08 | 77 | 1019.8 |
| 20260506011651 | 62 | 270 | 0.0 | 0.0 | 0.00 | 0.08 | 0.08 | 75 | 1019.8 |
| 20260506011147 | 62 | 312 | 0.0 | 0.0 | 0.00 | 0.08 | 0.08 | 76 | 1019.7 |
| 20260506010646 | 62 | 110 | 0.0 | 0.0 | 0.00 | 0.08 | 0.08 | 75 | 1019.8 |
| 20260506010143 | 62 | 304 | 0.0 | 0.0 | 0.00 | 0.08 | 0.08 | 75 | 1019.7 |
| 20260506005640 | 63 | 323 | 0.0 | 0.0 | 0.00 | 0.08 | 0.08 | 74 | 1019.7 |
| 20260506005136 | 63 | 325 | 0.0 | 0.0 | 0.00 | 0.08 | 0.08 | 73 | 1019.6 |
| 20260506004632 | 63 | 325 | 0.0 | 0.0 | 0.00 | 0.08 | 0.08 | 74 | 1019.6 |
| 20260506004129 | 63 | 249 | 0.0 | 0.0 | 0.00 | 0.08 | 0.08 | 73 | 1019.7 |
| 20260506003620 | 63 | 306 | 0.0 | 0.0 | 0.00 | 0.08 | 0.08 | 73 | 1019.7 |
| 20260506003117 | 64 | 316 | 0.0 | 0.0 | 0.00 | 0.08 | 0.08 | 72 | 1019.4 |
| 20260506002613 | 64 | 301 | 0.0 | 0.0 | 0.00 | 0.08 | 0.08 | 72 | 1019.3 |
| 20260506002109 | 64 | 321 | 0.0 | 0.0 | 0.00 | 0.08 | 0.08 | 72 | 1019.4 |
| 20260506001605 | 64 | 321 | 0.0 | 0.0 | 0.00 | 0.08 | 0.08 | 72 | 1019.3 |
| 20260506001102 | 64 | 322 | 0.0 | 0.0 | 0.00 | 0.08 | 0.08 | 71 | 1019.2 |
| 20260506000600 | 63 | 322 | 0.0 | 0.0 | 0.00 | 0.08 | 0.08 | 74 | 1019.3 |
| 20260506000057 | 63 | 340 | 0.0 | 0.0 | 0.00 | 0.08 | 0.08 | 74 | 1019.3 |
| 20260505235555 | 64 | 312 | 0.0 | 0.0 | 0.00 | 0.08 | 0.08 | 73 | 1019.3 |
| 20260505235052 | 64 | 308 | 0.0 | 0.0 | 0.00 | 0.08 | 0.08 | 73 | 1019.3 |
| 20260505234549 | 64 | 339 | 0.0 | 0.0 | 0.00 | 0.08 | 0.08 | 74 | 1019.3 |
| 20260505234045 | 63 | 326 | 0.0 | 0.0 | 0.00 | 0.08 | 0.08 | 74 | 1019.4 |
| 20260505233543 | 63 | 333 | 0.0 | 0.0 | 0.00 | 0.08 | 0.08 | 75 | 1019.3 |
| 20260505233040 | 64 | 322 | 0.0 | 0.0 | 0.00 | 0.08 | 0.08 | 75 | 1019.4 |
| 20260505232538 | 64 | 317 | 0.0 | 0.0 | 0.00 | 0.08 | 0.08 | 74 | 1019.4 |
| 20260505232035 | 64 | 319 | 0.0 | 0.0 | 0.00 | 0.08 | 0.08 | 74 | 1019.4 |
| 20260505231532 | 64 | 321 | 0.0 | 0.0 | 0.00 | 0.08 | 0.08 | 72 | 1019.2 |
| 20260505231031 | 64 | 326 | 0.0 | 0.0 | 0.00 | 0.08 | 0.08 | 73 | 1019.3 |
| 20260505230528 | 64 | 321 | 0.0 | 0.0 | 0.00 | 0.08 | 0.08 | 73 | 1019.3 |
| 20260505230024 | 64 | 340 | 0.0 | 0.0 | 0.00 | 0.08 | 0.08 | 74 | 1019.1 |
| 20260505225521 | 65 | 340 | 0.0 | 0.0 | 0.00 | 0.08 | 0.08 | 73 | 1019.2 |
| 20260505225017 | 65 | 320 | 0.0 | 0.0 | 0.00 | 0.08 | 0.08 | 70 | 1019.4 |
| 20260505224514 | 65 | 332 | 0.0 | 0.0 | 0.00 | 0.08 | 0.08 | 72 | 1019.3 |
| 20260505224011 | 65 | 286 | 0.0 | 0.0 | 0.00 | 0.08 | 0.08 | 73 | 1019.2 |
| 20260505223508 | 65 | 320 | 0.0 | 0.0 | 0.00 | 0.08 | 0.08 | 72 | 1019.4 |
| 20260505223004 | 65 | 321 | 0.0 | 0.0 | 0.00 | 0.08 | 0.08 | 71 | 1019.2 |
| 20260505222501 | 65 | 328 | 0.0 | 0.0 | 0.00 | 0.08 | 0.08 | 73 | 1019.3 |
| 20260505221956 | 65 | 316 | 0.0 | 0.0 | 0.00 | 0.08 | 0.08 | 70 | 1019.4 |
| 20260505221454 | 65 | 293 | 0.0 | 0.0 | 0.00 | 0.08 | 0.08 | 72 | 1019.5 |
| 20260505220951 | 65 | 320 | 0.0 | 0.0 | 0.00 | 0.08 | 0.08 | 70 | 1019.2 |
| 20260505220448 | 65 | 325 | 0.0 | 0.0 | 0.00 | 0.08 | 0.08 | 71 | 1019.3 |
| 20260505215945 | 65 | 336 | 0.0 | 0.0 | 0.00 | 0.08 | 0.08 | 73 | 1019.4 |
| 20260505215444 | 65 | 330 | 0.0 | 0.0 | 0.00 | 0.08 | 0.08 | 72 | 1019.5 |
| 20260505214941 | 65 | 296 | 0.0 | 0.0 | 0.00 | 0.08 | 0.08 | 70 | 1019.4 |
| 20260505214438 | 66 | 216 | 0.0 | 0.0 | 0.00 | 0.08 | 0.08 | 68 | 1019.5 |
| 20260505213936 | 65 | 290 | 0.0 | 0.0 | 0.00 | 0.08 | 0.08 | 66 | 1019.4 |
| 20260505213433 | 65 | 326 | 0.0 | 0.0 | 0.00 | 0.08 | 0.08 | 66 | 1019.6 |
| 20260505212929 | 66 | 307 | 0.0 | 0.0 | 0.00 | 0.08 | 0.08 | 68 | 1019.5 |
| 20260505212426 | 65 | 324 | 0.0 | 0.0 | 0.00 | 0.08 | 0.08 | 68 | 1019.7 |
| 20260505211922 | 66 | 329 | 0.0 | 0.0 | 0.00 | 0.08 | 0.08 | 68 | 1019.7 |
| 20260505211420 | 66 | 277 | 0.0 | 0.0 | 0.00 | 0.08 | 0.08 | 67 | 1019.7 |
| 20260505210916 | 65 | 320 | 0.0 | 0.0 | 0.00 | 0.08 | 0.08 | 71 | 1019.9 |
| 20260505210413 | 65 | 319 | 0.0 | 0.0 | 0.00 | 0.08 | 0.08 | 69 | 1019.7 |
| 20260505205910 | 65 | 303 | 0.0 | 0.0 | 0.00 | 0.08 | 0.08 | 69 | 1019.6 |
| 20260505205408 | 64 | 322 | 0.0 | 0.0 | 0.00 | 0.08 | 0.08 | 69 | 1019.9 |
| 20260505204905 | 65 | 299 | 0.0 | 0.0 | 0.00 | 0.08 | 0.08 | 69 | 1019.7 |
| 20260505204403 | 65 | 319 | 0.0 | 0.0 | 0.00 | 0.08 | 0.08 | 71 | 1020.0 |
| 20260505203859 | 64 | 173 | 0.0 | 0.0 | 0.00 | 0.08 | 0.08 | 71 | 1019.9 |
| 20260505203356 | 64 | 345 | 0.0 | 0.0 | 0.00 | 0.08 | 0.08 | 72 | 1019.8 |
| 20260505202852 | 64 | 310 | 0.0 | 0.0 | 0.00 | 0.08 | 0.08 | 72 | 1019.9 |
| 20260505202349 | 64 | 332 | 0.0 | 0.0 | 0.00 | 0.08 | 0.08 | 73 | 1019.9 |
| 20260505201845 | 63 | 0 | 0.0 | 0.0 | 0.00 | 0.08 | 0.08 | 71 | 1019.9 |
| 20260505201343 | 63 | 269 | 0.0 | 0.0 | 0.00 | 0.08 | 0.08 | 75 | 1019.8 |
| 20260505200841 | 63 | 319 | 0.0 | 0.0 | 0.00 | 0.08 | 0.08 | 74 | 1020.1 |
| 20260505200337 | 62 | 325 | 0.0 | 0.0 | 0.00 | 0.08 | 0.08 | 74 | 1020.0 |
| 20260505195833 | 63 | 322 | 0.0 | 0.0 | 0.00 | 0.08 | 0.08 | 74 | 1020.2 |
| 20260505195330 | 63 | 308 | 0.0 | 0.0 | 0.00 | 0.08 | 0.08 | 73 | 1020.0 |
| 20260505194827 | 62 | 328 | 0.0 | 0.0 | 0.00 | 0.08 | 0.08 | 76 | 1020.1 |
| 20260505194325 | 62 | 277 | 0.0 | 0.0 | 0.00 | 0.08 | 0.08 | 74 | 1020.2 |
| 20260505193820 | 62 | 317 | 0.0 | 0.0 | 0.00 | 0.08 | 0.08 | 75 | 1020.0 |
| 20260505193318 | 62 | 333 | 0.0 | 0.0 | 0.00 | 0.08 | 0.08 | 75 | 1020.1 |
| 20260505192816 | 62 | 299 | 0.0 | 0.0 | 0.00 | 0.08 | 0.08 | 77 | 1019.9 |
| 20260505192314 | 62 | 325 | 0.0 | 0.0 | 0.00 | 0.08 | 0.08 | 76 | 1020.0 |
| 20260505191811 | 62 | 318 | 0.0 | 0.0 | 0.00 | 0.08 | 0.08 | 75 | 1020.1 |